When you browse on this site, cookies collect data to enhance your experience and personalize the content and advertising you see.
Visit our Privacy Policy to learn more. By continuing to use the site, you agree to this use of cookies and data.
  • In Latvia
  • List of Countries
  • For 7 days
  • Water Temperature
  • Weather Map
  • Weather Widgets
  • user-avatar
    Login

    Hourly Weather Zaplavskaya

    Today, 26 August, Monday

    Time Temperature Precipitation Wind Pressure Humidity
    00:00 +26°C° 0 mm 5 mps 762 mmHg 37%
    01:00 +26°C° 0 mm 5 mps 763 mmHg 38%
    02:00 +25°C° 0 mm 5 mps 763 mmHg 38%
    03:00 +25°C° 0 mm 3 mps 764 mmHg 38%
    04:00 +25°C° 0 mm 3 mps 764 mmHg 40%
    05:00 +24°C° 0 mm 3 mps 764 mmHg 42%
    06:00 +23°C° 0 mm 4 mps 764 mmHg 44%
    07:00 +25°C° 0 mm 4 mps 764 mmHg 43%
    08:00 +26°C° 0 mm 5 mps 764 mmHg 42%
    09:00 +27°C° 0 mm 5 mps 765 mmHg 41%
    10:00 +29°C° 0 mm 5 mps 765 mmHg 37%
    11:00 +30°C° 0 mm 5 mps 764 mmHg 33%
    12:00 +33°C° 0 mm 5 mps 764 mmHg 29%
    13:00 +33°C° 0 mm 5 mps 764 mmHg 28%
    14:00 +34°C° 0 mm 5 mps 764 mmHg 27%
    15:00 +34°C° 0 mm 5 mps 764 mmHg 25%
    16:00 +33°C° 0 mm 5 mps 764 mmHg 27%
    17:00 +33°C° 0 mm 5 mps 763 mmHg 29%
    18:00 +32°C° 0 mm 5 mps 763 mmHg 31%
    19:00 +29°C° 0 mm 5 mps 763 mmHg 34%
    20:00 +27°C° 0 mm 4 mps 763 mmHg 37%
    21:00 +25°C° 0 mm 4 mps 764 mmHg 40%
    22:00 +25°C° 0 mm 4 mps 763 mmHg 41%
    23:00 +23°C° 0 mm 4 mps 763 mmHg 41%

    Tomorrow, 27 August, Tuesday

    Time Temperature Precipitation Wind Pressure Humidity
    00:00 +22°C° 0 mm 4 mps 763 mmHg 42%
    01:00 +22°C° 0 mm 4 mps 763 mmHg 42%
    02:00 +21°C° 0 mm 4 mps 763 mmHg 42%
    03:00 +21°C° 0 mm 4 mps 763 mmHg 42%
    04:00 +20°C° 0 mm 4 mps 763 mmHg 43%
    05:00 +20°C° 0 mm 3 mps 763 mmHg 45%
    06:00 +19°C° 0 mm 3 mps 762 mmHg 46%
    07:00 +22°C° 0 mm 4 mps 762 mmHg 42%
    08:00 +25°C° 0 mm 4 mps 762 mmHg 38%
    09:00 +27°C° 0 mm 4 mps 762 mmHg 33%
    10:00 +29°C° 0 mm 4 mps 762 mmHg 31%
    11:00 +30°C° 0 mm 4 mps 762 mmHg 28%
    12:00 +32°C° 0 mm 4 mps 761 mmHg 26%
    13:00 +33°C° 0 mm 4 mps 761 mmHg 25%
    14:00 +33°C° 0 mm 4 mps 761 mmHg 24%
    15:00 +34°C° 0 mm 4 mps 760 mmHg 23%
    16:00 +32°C° 0 mm 5 mps 760 mmHg 24%
    17:00 +30°C° 0 mm 5 mps 760 mmHg 24%
    18:00 +29°C° 0 mm 6 mps 760 mmHg 25%
    19:00 +27°C° 0 mm 5 mps 760 mmHg 30%
    20:00 +25°C° 0 mm 5 mps 760 mmHg 34%
    21:00 +22°C° 0 mm 4 mps 761 mmHg 39%
    22:00 +22°C° 0 mm 4 mps 761 mmHg 41%
    23:00 +21°C° 0 mm 3 mps 761 mmHg 44%

    Day after tomorrow, 28 August, Wednesday

    Time Temperature Precipitation Wind Pressure Humidity
    00:00 +20°C° 0 mm 3 mps 761 mmHg 46%
    01:00 +20°C° 0 mm 3 mps 761 mmHg 50%
    02:00 +19°C° 0 mm 2 mps 761 mmHg 53%
    03:00 +19°C° 0 mm 2 mps 761 mmHg 57%
    04:00 +19°C° 0 mm 2 mps 761 mmHg 61%
    05:00 +18°C° 0 mm 2 mps 761 mmHg 65%
    06:00 +18°C° 0 mm 2 mps 761 mmHg 70%
    07:00 +20°C° 0 mm 3 mps 761 mmHg 64%
    08:00 +22°C° 0 mm 3 mps 762 mmHg 58%
    09:00 +25°C° 0 mm 4 mps 762 mmHg 52%
    10:00 +26°C° 0 mm 4 mps 762 mmHg 46%
    11:00 +28°C° 0 mm 4 mps 761 mmHg 41%
    12:00 +29°C° 0 mm 5 mps 761 mmHg 35%
    13:00 +29°C° 0 mm 5 mps 761 mmHg 33%
    14:00 +29°C° 0 mm 5 mps 761 mmHg 30%
    15:00 +30°C° 0 mm 5 mps 760 mmHg 28%
    16:00 +29°C° 0 mm 6 mps 761 mmHg 29%
    17:00 +28°C° 0 mm 6 mps 761 mmHg 30%
    18:00 +27°C° 0 mm 6 mps 761 mmHg 31%
    19:00 +24°C° 0 mm 6 mps 761 mmHg 36%
    20:00 +22°C° 0 mm 5 mps 762 mmHg 41%
    21:00 +20°C° 0 mm 5 mps 762 mmHg 45%
    22:00 +19°C° 0 mm 5 mps 763 mmHg 44%
    23:00 +17°C° 0 mm 5 mps 763 mmHg 43%

    29 August, Thursday

    Time Temperature Precipitation Wind Pressure Humidity
    00:00 +16°C° 0 mm 5 mps 763 mmHg 42%
    01:00 +15°C° 0 mm 5 mps 764 mmHg 44%
    02:00 +14°C° 0 mm 4 mps 764 mmHg 47%
    03:00 +13°C° 0 mm 4 mps 764 mmHg 50%
    04:00 +12°C° 0 mm 4 mps 764 mmHg 53%
    05:00 +12°C° 0 mm 4 mps 765 mmHg 55%
    06:00 +11°C° 0 mm 4 mps 765 mmHg 58%
    07:00 +12°C° 0 mm 5 mps 765 mmHg 53%
    08:00 +14°C° 0 mm 5 mps 765 mmHg 49%
    09:00 +16°C° 0 mm 6 mps 765 mmHg 44%
    10:00 +17°C° 0 mm 6 mps 765 mmHg 39%
    11:00 +20°C° 0 mm 6 mps 765 mmHg 34%
    12:00 +22°C° 0 mm 6 mps 765 mmHg 29%
    13:00 +22°C° 0 mm 6 mps 764 mmHg 27%
    14:00 +23°C° 0 mm 6 mps 764 mmHg 25%
    15:00 +23°C° 0 mm 6 mps 763 mmHg 22%
    16:00 +23°C° 0 mm 6 mps 763 mmHg 24%
    17:00 +22°C° 0 mm 6 mps 763 mmHg 25%
    18:00 +22°C° 0 mm 6 mps 763 mmHg 26%
    19:00 +20°C° 0 mm 5 mps 763 mmHg 29%
    20:00 +18°C° 0 mm 4 mps 763 mmHg 33%
    21:00 +15°C° 0 mm 4 mps 763 mmHg 37%
    22:00 +15°C° 0 mm 4 mps 763 mmHg 39%
    23:00 +14°C° 0 mm 4 mps 763 mmHg 40%

    30 August, Friday

    Time Temperature Precipitation Wind Pressure Humidity
    00:00 +13°C° 0 mm 4 mps 763 mmHg 42%
    01:00 +13°C° 0 mm 4 mps 763 mmHg 45%
    02:00 +12°C° 0 mm 4 mps 763 mmHg 48%
    03:00 +12°C° 0 mm 4 mps 763 mmHg 51%
    04:00 +12°C° 0 mm 4 mps 763 mmHg 52%
    05:00 +11°C° 0 mm 4 mps 763 mmHg 54%
    06:00 +11°C° 0 mm 4 mps 763 mmHg 56%
    07:00 +13°C° 0 mm 4 mps 763 mmHg 49%
    08:00 +15°C° 0 mm 4 mps 763 mmHg 43%
    09:00 +19°C° 0 mm 5 mps 763 mmHg 37%
    10:00 +20°C° 0 mm 5 mps 763 mmHg 32%
    11:00 +22°C° 0 mm 5 mps 762 mmHg 27%
    12:00 +25°C° 0 mm 5 mps 762 mmHg 22%
    13:00 +25°C° 0 mm 5 mps 762 mmHg 20%
    14:00 +26°C° 0 mm 5 mps 762 mmHg 19%
    15:00 +26°C° 0 mm 5 mps 761 mmHg 17%
    16:00 +26°C° 0 mm 5 mps 761 mmHg 19%
    17:00 +25°C° 0 mm 5 mps 761 mmHg 21%
    18:00 +23°C° 0 mm 4 mps 761 mmHg 23%
    19:00 +22°C° 0 mm 3 mps 761 mmHg 28%
    20:00 +20°C° 0 mm 3 mps 761 mmHg 34%
    21:00 +18°C° 0 mm 2 mps 761 mmHg 39%
    22:00 +18°C° 0 mm 2 mps 761 mmHg 42%
    23:00 +17°C° 0 mm 2 mps 761 mmHg 46%

    31 August, Saturday

    Time Temperature Precipitation Wind Pressure Humidity
    00:00 +17°C° 0 mm 2 mps 761 mmHg 50%
    01:00 +16°C° 0 mm 3 mps 762 mmHg 58%
    02:00 +15°C° 0 mm 4 mps 762 mmHg 67%
    03:00 +15°C° 0 mm 4 mps 762 mmHg 75%
    04:00 +14°C° 0 mm 4 mps 762 mmHg 78%
    05:00 +13°C° 0 mm 5 mps 762 mmHg 80%
    06:00 +12°C° 0 mm 5 mps 763 mmHg 83%
    07:00 +13°C° 0 mm 5 mps 763 mmHg 74%
    08:00 +15°C° 0 mm 5 mps 763 mmHg 64%
    09:00 +16°C° 0 mm 5 mps 764 mmHg 55%
    10:00 +19°C° 0 mm 5 mps 763 mmHg 45%
    11:00 +20°C° 0 mm 5 mps 763 mmHg 34%
    12:00 +22°C° 0 mm 5 mps 763 mmHg 24%
    13:00 +23°C° 0 mm 5 mps 763 mmHg 21%
    14:00 +25°C° 0 mm 5 mps 763 mmHg 19%
    15:00 +26°C° 0 mm 5 mps 763 mmHg 17%
    16:00 +25°C° 0 mm 4 mps 763 mmHg 18%
    17:00 +23°C° 0 mm 4 mps 763 mmHg 19%
    18:00 +23°C° 0 mm 4 mps 762 mmHg 20%
    19:00 +20°C° 0 mm 4 mps 763 mmHg 24%
    20:00 +18°C° 0 mm 3 mps 763 mmHg 28%
    21:00 +16°C° 0 mm 3 mps 763 mmHg 32%
    22:00 +14°C° 0 mm 3 mps 764 mmHg 34%
    23:00 +15°C° 0 mm 2 mps 764 mmHg 35%
    Show more